カタログに戻る

STARLINK-11382

運用中通信VLEO
NORAD 62881·PAYLOAD·🇺🇸 United States

打ち上げ Feb 4, 2025 から Cape Canaveral Space Force Station

Loading…

次のパス (今後24時間)

TLE

最新Source: CelesTrak SupGP

元期: Sep 15, 2026, 03:13 UTC

1 62881C 25024C   26258.13451389  .00106040  00000+0  82217-3 0  2586
2 62881  43.0004 119.6139 0001857 256.8912 354.4372 15.70825834    14

AllMySatでSTARLINK-11382をリアルタイム追跡

Download on the App Store